Sterling, IL

2:54 AM CST on December 15, 2019 (GMT -0600)
Whiteside County-Bittorf

Weather History for KSQI - November, 2019

Change the Weather History Date:

Tuesday, November 12, 2019

  Actual Average Record
Temperature  
Mean Temperature 14 °F -  
Max Temperature 25 °F 47 °F 66 °F (1999)
Min Temperature 3 °F 30 °F 12 °F (1996)
Degree Days  
Heating Degree Days 51    
Moisture  
Dew Point 1 °F    
Average Humidity 62    
Maximum Humidity 76    
Minimum Humidity 37    
Precipitation  
Precipitation 0.06 in - - ()
Sea Level Pressure  
Sea Level Pressure 30.11 in    
Wind  
Wind Speed 7 mph ()    
Max Wind Speed 14 mph    
Max Gust Speed 17 mph    
Visibility 10.0 miles    
Events      
Averages and records for this station are not official NWS values.
T = Trace of Precipitation, MM = Missing Value Source: Averaged Metar Reports

Daily Weather History Graph

Daily Weather History Graph

Search for Another Location

Airport or City:

Astronomy

Nov. 12, 2019 Rise Set
Actual Time 6:44 AM CST 4:41 PM CST
Civil Twilight 6:14 AM CST 5:10 PM CST
Nautical Twilight 5:40 AM CST 5:44 PM CST
Astronomical Twilight 5:08 AM CST 6:16 PM CST
Moon 5:08 PM CST (11/12) 6:34 AM CST (11/12)
Length of Visible Light 10h 56m
Length of Day
9h 57m
Full, 100% of the Moon is Illuminated
Nov 12
Full
Nov 19
Last Quarter
Nov 26
New
Dec 4
First Quarter
Dec 11
Full

Hourly Weather History & Observations

Time (CST) Temp. Windchill Dew Point Humidity Pressure Visibility Wind Dir Wind Speed Gust Speed Precip Events Conditions
12:56 AM 10.0 °F -5.2 °F 1.9 °F 70% 30.13 in 10.0 mi NNW 12.7 mph - N/A   Clear
1:56 AM 8.1 °F -6.2 °F 1.0 °F 73% 30.14 in 10.0 mi NW 10.4 mph - N/A   Clear
2:56 AM 8.1 °F -6.2 °F -0.0 °F 70% 30.14 in 10.0 mi NNW 10.4 mph - N/A   Clear
3:56 AM 6.1 °F -7.8 °F -0.9 °F 73% 30.14 in 10.0 mi NW 9.2 mph - N/A   Clear
4:56 AM 6.1 °F -6.8 °F -2.0 °F 69% 30.15 in 10.0 mi NW 8.1 mph 17.3 mph N/A   Clear
5:56 AM 3.9 °F -9.4 °F -2.9 °F 73% 30.17 in 10.0 mi WNW 8.1 mph - N/A   Clear
6:56 AM 3.9 °F -11.3 °F -2.0 °F 76% 30.17 in 10.0 mi NW 10.4 mph - N/A   Clear
7:56 AM 10.0 °F -4.5 °F -0.0 °F 64% 30.18 in 10.0 mi NW 11.5 mph - N/A   Clear
8:56 AM 12.0 °F -3.4 °F -0.9 °F 56% 30.19 in 10.0 mi NNW 13.8 mph - N/A   Clear
9:56 AM 17.1 °F 5.0 °F 1.0 °F 50% 30.19 in 10.0 mi NW 10.4 mph - N/A   Clear
10:56 AM 21.9 °F 12.5 °F 1.9 °F 42% 30.18 in 10.0 mi WNW 8.1 mph - N/A   Clear
11:56 AM 25.0 °F 17.1 °F 1.9 °F 37% 30.16 in 10.0 mi NW 6.9 mph - N/A   Clear
12:56 PM 23.0 °F 14.7 °F 3.0 °F 42% 30.14 in 10.0 mi West 6.9 mph - 0.02 in   Clear
1:56 PM 21.0 °F 12.4 °F 3.0 °F 46% 30.12 in 10.0 mi West 6.9 mph - 0.01 in   Clear
2:56 PM 19.0 °F 8.2 °F 1.9 °F 47% 30.11 in 10.0 mi WSW 9.2 mph - 0.02 in   Clear
3:56 PM 14.0 °F 5.1 °F -0.9 °F 52% 30.10 in 10.0 mi WSW 5.8 mph - N/A   Clear
4:56 PM 10.9 °F - -2.0 °F 56% 30.09 in 10.0 mi Calm Calm - 0.01 in   Clear
5:56 PM 10.0 °F - -0.9 °F 61% 30.06 in 10.0 mi Calm Calm - N/A   Clear
6:56 PM 9.0 °F - -0.0 °F 67% 30.04 in 10.0 mi Calm Calm - N/A   Clear
7:56 PM 9.0 °F - 1.0 °F 70% 30.02 in 10.0 mi Calm Calm - N/A   Clear
8:56 PM 9.0 °F 2.4 °F 1.0 °F 70% 30.00 in 10.0 mi Variable 3.5 mph - N/A   Clear
9:56 PM 9.0 °F -0.9 °F 1.9 °F 73% 29.99 in 10.0 mi SSE 5.8 mph - N/A   Clear
10:56 PM 10.0 °F 3.6 °F 3.0 °F 73% 29.98 in 10.0 mi Variable 3.5 mph - N/A   Clear
11:56 PM 10.9 °F 2.9 °F 3.0 °F 70% 29.95 in 10.0 mi SSE 4.6 mph - N/A   Clear